Regional Weather Roundup
Issued by NWS Wilmington, NC

Home | Current Version | Previous Version | Text Only | Print | Product List | Glossary On
Versions: 1 2 3 4 5 6 7 8 9 10 11 12 13 14 15 16 17 18 19 20 21 22 23 24 25 26 27 28 29 30 31 32 33 34 35 36 37 38 39 40 41 42 43 44 45 46 47 48 49 50
000
ASUS42 KILM 191610
RWRILM
RWRILM
REGIONAL HOURLY WEATHER ROUNDUP
NATIONAL WEATHER SERVICE WILMINGTON NC
1200 PM EDT FRI SEP 19 2014

NOTE: "FAIR" INDICATES FEW OR NO CLOUDS BELOW 12,000 FEET WITH NO
SIGNIFICANT WEATHER AND/OR OBSTRUCTIONS TO VISIBILITY.

...............WFO WILMINGTON COUNTY WARNING AREA...............

......COASTAL NC AND SC COUNTIES......

CITY           SKY/WX    TMP DP  RH WIND       PRES   REMARKS
WILMINGTON     PTSUNNY   77  66  68 E16G23    30.13S
SOUTHPORT      PTSUNNY   76  65  69 NE10G18   30.12S
N MYRTLE BEACH PTSUNNY   80  67  64 E13G23    30.10F
MYRTLE BEACH   PTSUNNY   79  68  69 E14       30.10F

......INLAND NC AND SC COUNTIES.......

CITY           SKY/WX    TMP DP  RH WIND       PRES   REMARKS
LUMBERTON      MOSUNNY   80  57  45 E12       30.14S
ELIZABETHTOWN  MOSUNNY   78  58  49 NE6       30.15S
WHITEVILLE     PTSUNNY   77  62  59 E10       30.13S
FLORENCE       CLOUDY    77  64  64 E9        30.12F
DARLINGTON     CLOUDY    75  61  60 NE8       30.15R

....................REST OF NORTH CAROLINA......................

.........EASTERN NC.........

CITY           SKY/WX    TMP DP  RH WIND       PRES   REMARKS
CAPE HATTERAS  PTSUNNY   76  63  64 NE13G25   30.17S
JACKSONVILLE   MOSUNNY   77  61  57 E9        30.16S
MOREHEAD CITY  PTSUNNY   80  64  58 NE12G21   30.15S
KENANSVILLE    MOSUNNY   78  55  44 E6        30.17S
NEW BERN       MOSUNNY   79  61  53 E13       30.18S
ELIZABETH CITY MOSUNNY   77  59  53 E13       30.22R

.........CENTRAL NC.........

CITY           SKY/WX    TMP DP  RH WIND       PRES   REMARKS
RALEIGH DURHAM MOSUNNY   77  56  48 E12G22    30.20R
ROCKY MOUNT    SUNNY     77  57  50 E8        30.20R
ROANOKE RAPIDS NOT AVBL
FAYETTEVILLE   PTSUNNY   76  58  53 E9        30.16S
HOFFMAN        PTSUNNY   77  50  38 E12       30.18S

.........WESTERN NC.........

CITY           SKY/WX    TMP DP  RH WIND       PRES   REMARKS
CHARLOTTE      CLOUDY    73  60  63 E7        30.18S
GREENSBORO     CLOUDY    71  57  61 E9        30.20S
HICKORY        NOT AVBL
BOONE          NOT AVBL
ASHEVILLE      NOT AVBL

.....................REST OF SOUTH CAROLINA.....................

.........EASTERN SC.........

CITY           SKY/WX    TMP DP  RH WIND       PRES   REMARKS
CHARLESTON     PTSUNNY   80  69  69 SE13      30.08S
BEAUFORT MCAS  PTSUNNY   83  71  67 NW13      30.06S
HILTON HEAD    NOT AVBL

.........CENTRAL SC.........

CITY           SKY/WX    TMP DP  RH WIND       PRES   REMARKS
COLUMBIA       CLOUDY    73  65  75 N7        30.12R
ORANGEBURG     CLOUDY    78  67  68 E8        30.09S
SUMTER SHAW    CLOUDY    81  62  53 E9        30.10S

.........WESTERN SC.........

CITY           SKY/WX    TMP DP  RH WIND       PRES   REMARKS
GREENVILLE     NOT AVBL
ROCK HILL      CLOUDY    70  64  81 VRB6      30.18R
ANDERSON       PTSUNNY   72  64  76 NE8       30.15S
CLEMSON        NOT AVBL
GREENWOOD      PTSUNNY   73  64  73 VRB7      30.16S


...................COASTAL AND OFFSHORE REPORTS..................

................LOCAL PIERS AND NC RESERVE................


STATION/POSITION TIME  SKY/WX   TEMP    WIND        PRES    VSBY
                                AIR SEA DIR/SP/G
                 (UTC)          (F)     (DEG/KT/KT) (MB)    (MI)
JOHNY MRCER PIER 1600            76 80   60/ 21/ 26 1019.8S
NC RESRV MASNBRO 1500            77      50/ 13     1020.0R
OCEAN CREST PIER 1600            78 81   30/ 15/ 19 1018.6R
SPRINGMAID  PIER 1600            78 81   40/ 17/ 21 1019.4S


................COASTAL AND OFFSHORE BUOYS................


STATION/POSITION TIME  SKY/WX   TEMP    WIND        PRES    VSBY
                                AIR SEA DIR/SP/G
                 (UTC)          (F)     (DEG/KT/KT) (MB)    (MI)
DIMNDSHOAL 41025 1600            78      50/ 17/ 23 1020.9R
WVE H/P(F/S)=  6/ 7 WND WVE H/P(F/S)=  7/ 7

CAPE LOOKOUT     1500            76      50/ 20/ 24 1020.6R
ONSLOW BAY 41036 1600            77 82   60/ 21/ 25 1020.1S
WVE H/P(F/S)=  5/ 5 WND WVE H/P(F/S)=  5/ 5 SWL H/P/D(F/S/D)=  2/ 90/ 9

5 WRITEBCH 41038 1500            74 80   70/ 19/ 21   N/A
MASONBORO  41110 1600               80                N/A
WVE H/P(F/S)=  5/ 5 WND WVE H/P(F/S)=  5/ 5

WILM HARBR 41108 1600               81                N/A
WVE H/P(F/S)=  4/ 5 WND WVE H/P(F/S)=  3/ 5

27WRITEBCH 41037 1500            75 81   70/ 21/ 23 1019.7F
FRYING PAN 41013 NOT AVBL
SUNST NRSH 41024 1500            78      70/ 14/ 17 1019.2R
CAPRS NRSH 41029 1500            77     110/ 17/ 21   N/A
EDISTO     41004 1600            73 82   80/ 16/ 19 1018.0R
WVE H/P(F/S)=  5/ 6 WND WVE H/P(F/S)=  5/ 6 SWL H/P/D(F/S/D)=  2/ 8



..........OFFSHORE BUOYS BEYOND 100 NM OFFSHORE...........
.....IN A TRIANGLE---HAT TO BERMUDA TO BAHAMAS TO HAT.....


STATION/POSITION TIME  SKY/WX   TEMP    WIND        PRES    VSBY
                                AIR SEA DIR/SP/G
                 (UTC)          (F)     (DEG/KT/KT) (MB)    (MI)
150E HAT   41001 NOT AVBL
W BERMUDA  41048 1531            80 81   50/  8/ 10 1017.7F
WVE H/P(F/S)=  3/ 6 WND WVE H/P(F/S)=  2/ 4 SWL H/P/D(F/S/D)=  3/260/ 6

ATLANTIC S 41049 1452            80 85  260/ 10/ 14 1018.7F
WVE H/P(F/S)=  4/ 8 WND WVE H/P(F/S)=  2/ 3 SWL H/P/D(F/S/D)=  3/110/ 8

E BAHAMAS  41046 1540            83 86  120/  4/  6 1016.1F
WVE H/P(F/S)=  3/ 9 WND WVE H/P(F/S)=  2/ 4 SWL H/P/D(F/S/D)=  3/ 70/ 9

NE BAHAMAS 41047 NOT AVBL
120E CANVRL41010 1600            83 85   70/ 12/ 14 1015.4F
WVE H/P(F/S)=  3/12 WND WVE H/P(F/S)=  2/ 4 SWL H/P/D(F/S/D)=  3/ 40/12


END



USA.gov is the U.S. government's official web portal to all federal, state and local government web resources and services.